Goodland, KS

11:01 PM MST on February 20, 2017 (GMT -0700)
Renner-Goodland Municipal

Weather History for KGLD - December, 2011

Change the Weather History Date:

Monday, December 26, 2011

  Actual Average Record
Temperature  
Mean Temperature 37 °F 29 °F  
Max Temperature 51 °F 42 °F 69 °F (2005)
Min Temperature 23 °F 17 °F -10 °F (2012)
Degree Days  
Heating Degree Days 28 36  
Month to date heating degree days 968 912  
Since 1 July heating degree days 2177 2231  
Cooling Degree Days 0 0  
Month to date cooling degree days 0 0  
Year to date cooling degree days 1116 941  
Moisture  
Dew Point 20 °F    
Average Humidity 50    
Maximum Humidity 69    
Minimum Humidity 30    
Precipitation  
Precipitation 0.00 in 0.02 in 0.54 in (1939)
Month to date precipitation 0.41 0.40  
Year to date precipitation 19.33 19.60  
Snow  
Snow 0.00 in 0.20 in - ()
Month to date snowfall 7.8 4.6  
Since 1 July snowfall 11.4 11.8  
Snow Depth T in    
Sea Level Pressure  
Sea Level Pressure 30.09 in    
Wind  
Wind Speed 13 mph (WNW)    
Max Wind Speed 28 mph    
Max Gust Speed 36 mph    
Visibility 10 miles    
Events      
T = Trace of Precipitation, MM = Missing Value Source: NWS Daily Summary

Daily Weather History Graph

Daily Weather History Graph

Search for Another Location

Airport or City:

Trip Planner

Search our weather history database for the weather conditions in past years. The results will help you decide how hot, cold, wet, or windy it might be!

Date:

Astronomy

Dec. 26, 2011 Rise Set
Actual Time 7:05 AM MST 4:29 PM MST
Civil Twilight 6:35 AM MST 4:59 PM MST
Nautical Twilight 6:01 AM MST 5:33 PM MST
Astronomical Twilight 5:28 AM MST 6:06 PM MST
Moon 8:27 AM MST (12/26) 6:59 PM MST (12/26)
Length of Visible Light 10h 24m
Length of Day
9h 24m
Waxing Crescent, 5% of the Moon is Illuminated
Dec 26
Waxing Crescent
Dec 31
First Quarter
Jan 9
Full
Jan 16
Last Quarter
Jan 23
New

Hourly Weather History & Observations

Time (MST) Temp. Windchill Dew Point Humidity Pressure Visibility Wind Dir Wind Speed Gust Speed Precip Events Conditions
12:53 AM 28.0 °F 16.5 °F 18.0 °F 66% 30.18 in 10.0 mi WSW 15.0 mph - N/A   Clear
1:53 AM 30.0 °F 18.7 °F 19.0 °F 64% 30.14 in 10.0 mi SW 16.1 mph - N/A   Clear
2:53 AM 30.0 °F 17.5 °F 19.0 °F 64% 30.10 in 10.0 mi SW 19.6 mph - N/A   Clear
3:53 AM 30.0 °F 17.9 °F 18.0 °F 61% 30.07 in 10.0 mi SW 18.4 mph - N/A   Clear
4:53 AM 28.9 °F 17.7 °F 17.1 °F 61% 30.07 in 10.0 mi WSW 15.0 mph - N/A   Clear
5:53 AM 28.9 °F 17.3 °F 16.0 °F 58% 30.04 in 10.0 mi SW 16.1 mph - N/A   Clear
6:53 AM 25.0 °F 14.8 °F 15.1 °F 66% 30.03 in 10.0 mi South 10.4 mph - N/A   Clear
7:53 AM 27.0 °F 19.5 °F 16.0 °F 63% 30.05 in 10.0 mi SW 6.9 mph - N/A   Clear
8:53 AM 30.9 °F 22.2 °F 17.1 °F 57% 30.04 in 10.0 mi SSW 10.4 mph - N/A   Clear
9:53 AM 39.9 °F 32.9 °F 21.0 °F 47% 30.04 in 10.0 mi WSW 11.5 mph - N/A   Clear
10:53 AM 45.0 °F 38.9 °F 23.0 °F 42% 30.04 in 10.0 mi NW 12.7 mph - N/A   Clear
11:53 AM 48.9 °F - 21.0 °F 33% 29.97 in 10.0 mi WNW 9.2 mph - N/A   Clear
12:53 PM 50.0 °F - 21.0 °F 32% 29.96 in 10.0 mi North 18.4 mph 26.5 mph N/A   Clear
1:53 PM 51.1 °F - 21.0 °F 31% 29.94 in 10.0 mi North 23.0 mph 27.6 mph N/A   Clear
2:53 PM 50.0 °F - 21.9 °F 33% 29.98 in 10.0 mi North 19.6 mph 27.6 mph N/A   Clear
3:53 PM 45.0 °F 39.7 °F 23.0 °F 42% 30.03 in 10.0 mi NNE 10.4 mph - N/A   Clear
4:53 PM 30.9 °F 22.8 °F 21.9 °F 69% 30.10 in 10.0 mi NNW 9.2 mph - N/A   Clear
5:53 PM 33.1 °F 24.4 °F 23.0 °F 66% 30.12 in 10.0 mi North 11.5 mph - N/A   Clear
6:53 PM 32.0 °F 24.2 °F 21.9 °F 66% 30.18 in 10.0 mi NW 9.2 mph - N/A   Clear
7:53 PM 30.0 °F 21.1 °F 21.0 °F 69% 30.20 in 10.0 mi NW 10.4 mph - N/A   Clear
8:53 PM 30.9 °F 21.7 °F 19.9 °F 64% 30.21 in 10.0 mi NW 11.5 mph - N/A   Clear
9:53 PM 28.9 °F 17.7 °F 19.0 °F 67% 30.20 in 10.0 mi NW 15.0 mph - N/A   Clear
10:53 PM 28.0 °F 18.6 °F 19.0 °F 69% 30.19 in 10.0 mi NNW 10.4 mph - N/A   Clear
11:53 PM 24.1 °F 12.5 °F 17.1 °F 75% 30.19 in 10.0 mi NW 12.7 mph - N/A   Clear